Location: Observatoire
(46.1952°N, 5.3391°E)
Time: 06:27:00
(UTC+01:00)

A-11 Canister half - Pass Details

Date: 23 February 2026
Orbit: 1524 x 1683 km, 47.3° (Epoch: 13 March)

Event Time Altitude Azimuth Distance (km) Brightness Sun altitude
Rises 14:10:09 0° 202° (SSW) 4,776 12.7 31.4°
Reaches altitude 10° 14:13:42 10° 193° (SSW) 3,770 12.5 31.2°
Maximum altitude 14:21:41 32° 135° (SE) 2,439 10.6 30.6°
Drops below altitude 10° 14:29:30 10° 77° (ENE) 3,703 10.7 30.0°
Sets 14:32:56 0° 68° (ENE) 4,681 11.1 29.7°
